Regional Weather Roundup
Issued by NWS

Home | Current Version | Previous Version | Text Only | Print | Product List | Glossary Off
Versions: 1 2 3 4 5 6 7 8 9 10 11 12 13 14 15 16 17 18 19 20 21 22 23 24 25 26 27 28 29 30 31 32 33 34 35 36 37 38 39 40 41 42 43 44 45 46 47 48 49 50

000
ASUS45 KSLC 232310
RWRUT

UTAH REGIONAL WEATHER ROUNDUP
NATIONAL WEATHER SERVICE SALT LAKE CITY UT
500 PM MDT SAT MAY 23 2015

UTZ001>011-023>025-240000-

NORTHERN UTAH

CITY           SKY/WX    TMP DP  RH WIND       PRES   REMARKS
BRIGHAM CITY   MOSUNNY   60  42  52 CALM      29.94S
HILL AFB       CLOUDY    59  45  58 W5        29.94R
LOGAN          MOSUNNY   60  44  55 W8        29.92F
OGDEN          CLOUDY    59  45  59 NW9       29.93F
PROVO AIRPORT  PTSUNNY   57  43  58 W3        29.93F
SALT LAKE CITY PTSUNNY   59  43  55 N6        29.92F
VERNAL         MOSUNNY   60  32  34 SW8       29.91F
WENDOVER       PTSUNNY   54  48  82 CALM      29.94F
HEBER CITY     PTSUNNY   59  37  44 SW14      29.89F
WEST JORDAN    CLOUDY    57  46  67 NW5       29.93F

$$

UTZ012>022-026-027-240000-

SOUTHERN/CENTRAL UTAH

CITY           SKY/WX    TMP DP  RH WIND       PRES   REMARKS
BLANDING       CLOUDY    46  43  90 S16       30.07F
BRYCE CANYON   LGT RAIN  42  37  82 SW7       30.02F
CEDAR CITY     RAIN      43  41  93 NW3       29.98R FOG
DELTA          CLOUDY    56  41  56 SW9       29.93F
HANKSVILLE     CLOUDY    50  45  81 E9        29.95F
MILFORD        LGT RAIN  51  45  79 E6        29.94F
MOAB/CYNLANDS  PTSUNNY   57  38  48 W17       29.90F
PRICE          LGT RAIN  47  40  76 NE16      29.97S
ST GEORGE      MOCLDY    72  43  35 N8        29.90F
KANAB          CLOUDY    55  45  67 CALM      29.99F

$$

REGIONAL REPORTS     COLORADO/ARIZONA

CITY           SKY/WX    TMP DP  RH WIND       PRES   REMARKS
CRAIG, CO      PTSUNNY   53  35  50 SW23      29.96S
GRAND JUNCTION LGT RAIN  50  42  74 N9        29.95F
RIFLE          CLOUDY    58  35  42 SE6       29.95S
MONTROSE       CLOUDY    50  37  61 NW12      30.00R
CORTEZ         LGT RAIN  47  40  76 NW17G24   30.02S
PAGE, AZ       CLOUDY    59  43  55 CALM      29.95F
GRAND CANYON   CLOUDY    47  43  86 CALM      30.04F
KINGMAN        PTSUNNY   75  36  24 SW18G25   29.95F
FLAGSTAFF      PTSUNNY   53  33  46 SW13G25   30.07F

$$

REGIONAL REPORTS    NEVADA/IDAHO/WYOMING

CITY           SKY/WX    TMP DP  RH WIND       PRES   REMARKS
LAS VEGAS, NV  PTSUNNY   81  39  22 SW13G20   29.80F
ELY            LGT RAIN  48  46  93 NW5       29.99R
ELKO           CLOUDY    52  47  83 NW3       29.96R
POCATELLO, ID  LGT RAIN  54  50  86 S5        29.95F
BURLEY         TSTM      52  46  80 S6        29.92R
EVANSTON, WY   PTSUNNY   46  38  73 W13       29.96F
ROCK SPRINGS   TSTM      49  36  61 W13G21    29.94S
KEMMERER       PTSUNNY   46  36  66 W8        29.98S

$$


USA.gov is the U.S. government's official web portal to all federal, state and local government web resources and services.